NOAA 16 DEB, 41255

Orbit data source: Space-Track

NOAA 16 DEB, 41255 is space debris in SSO originally from a launch on Thu, 21 Sep 2000 UTC launched from the Air Force Western Test Range (AFWTR). Debris objects in space refer to the collection of defunct objects orbiting the Earth. Examples of debris include non-operational satellites, rocket bodies, and fragments generated from explosions, collisions, or faulty payload assembly.

Loading next visibility...
Identifier
41255, 2000-055FF
Orbit
SSO
Country
Flag of USUS
Related business
Manufacturer
Unknown
Mission
Spacecraft
Bus & Motor
Unknown
Mass
Unknown
Launch date (UTC)
2000-09-21 (26 years ago)
Launch vehicle
Unknown
Launch site
Air Force Western Test Range (AFWTR)
Object type
Payload
Rocket body
Debris
Shape & HBR
Unknown shape, 0.1 m
Radar Cross Section
Medium (>0.1 m² and <1 m²)

Expand to show TLE details & history
Last TLE update: 1 week ago

TLE from 1 week ago
0 NOAA 16 DEB
1 41255U 00055FF  26222.24078485  .00005178  00000-0  10635-2 0  9997
2 41255  98.7705  13.6646 0029468 187.1605 172.9177 14.60835907557316
Epoch: 2026-08-10T05:46Z
TLE epoch observation values (Epoch: 2026-08-10T05:46:43.811Z)
Latitude
0.00002°
Longitude
-31.7442°
Altitude
714.12 km
Speed
7.488 km/s
True Right ascension
00h 54m 39s
True Declination
0° 00' 00"
Sunlit
Object was in full shadow at epoch
Visualization orbit readout
Latitude
Unknown
Longitude
Unknown
Altitude
Unknown
Speed
Unknown
Apparent Right ascension
Unknown
Apparent Declination
Unknown
Sunlit
N/A
Visualization observer readout
Local Sidereal Time
15:57:53
Azimuth
Unknown
Elevation
Unknown
Doppler factor
Unknown
Orbital elements
Apogee altitude
708.405 km
Perigee altitude
666.762 km
Semi-major axis
7,065.72 km
Eccentricity
0.00295
Inclination
98.7705°
RAAN
13.6646°
Arg. of periapsis
187.1605°
True anomaly
172.95918°
Mean anomaly
172.9177°
Eccentric anomaly
172.93846°
Mean motion
3.65434 °/min
Orbital period
98.51 mins
BSTAR
0.0010635
Loading maneuver chart data...
Computing Atmospheric mass density...
Loading historical data...
Loading historical data...
Loading historical data...
Loading historical data...
Loading historical data...
Loading historical data...
Loading historical data...

Documentation

Showing up to 5 results
|